Williamsport, PA

10:50 PM EDT on April 29, 2017 (GMT -0400)
Williamsport Rgnl

Weather History for KIPT - July, 2012

Change the Weather History Date:

Sunday, July 22, 2012

  Actual Average Record
Temperature  
Mean Temperature 74 °F 73 °F  
Max Temperature 85 °F 84 °F 103 °F (2011)
Min Temperature 63 °F 62 °F 48 °F (1929)
Degree Days  
Heating Degree Days 0 0  
Month to date heating degree days 0 0  
Since 1 June heating degree days 24 37  
Since 1 July heating degree days 0 0  
Cooling Degree Days 9 8  
Month to date cooling degree days 268 173  
Year to date cooling degree days 528 362  
Since 1 June cooling degree days 420 319  
Growing Degree Days 24 (Base 50)    
Moisture  
Dew Point 63 °F    
Average Humidity 72    
Maximum Humidity 93    
Minimum Humidity 51    
Precipitation  
Precipitation T in 0.15 in 1.54 in (1925)
Month to date precipitation 1.96 3.02  
Year to date precipitation 18.02 21.85  
Sea Level Pressure  
Sea Level Pressure 30.12 in    
Wind  
Wind Speed 2 mph (SSE)    
Max Wind Speed 10 mph    
Max Gust Speed 15 mph    
Visibility 9 miles    
Events      
T = Trace of Precipitation, MM = Missing Value Source: NWS Daily Summary

Daily Weather History Graph

Daily Weather History Graph

Search for Another Location

Airport or City:

Trip Planner

Search our weather history database for the weather conditions in past years. The results will help you decide how hot, cold, wet, or windy it might be!

Date:

Astronomy

Jul. 22, 2012 Rise Set
Actual Time 5:54 AM EDT 8:33 PM EDT
Civil Twilight 5:22 AM EDT 9:05 PM EDT
Nautical Twilight 4:41 AM EDT 9:45 PM EDT
Astronomical Twilight 3:56 AM EDT 10:30 PM EDT
Moon 9:40 AM EDT (7/22) 10:12 PM EDT (7/22)
Length of Visible Light 15h 43m
Length of Day
14h 39m
Waxing Crescent, 13% of the Moon is Illuminated
Jul 22
Waxing Crescent
Jul 26
First Quarter
Aug 1
Full
Aug 9
Last Quarter
Aug 17
New

Hourly Weather History & Observations

Time (EDT) Temp. Heat Index Dew Point Humidity Pressure Visibility Wind Dir Wind Speed Gust Speed Precip Events Conditions
12:54 AM 66.9 °F - 62.1 °F 84% 30.11 in 10.0 mi Calm Calm - N/A   Overcast
1:54 AM 66.9 °F - 62.1 °F 84% 30.10 in 10.0 mi Calm Calm - N/A   Overcast
2:54 AM 66.9 °F - 62.1 °F 84% 30.09 in 10.0 mi Calm Calm - N/A   Overcast
3:54 AM 66.0 °F - 62.1 °F 87% 30.09 in 10.0 mi Calm Calm - N/A   Overcast
4:54 AM 64.0 °F - 62.1 °F 93% 30.10 in 10.0 mi Calm Calm - N/A   Clear
5:15 AM 62.6 °F - 60.8 °F 94% 30.12 in 9.0 mi Calm Calm - N/A   Partly Cloudy
5:54 AM 64.0 °F - 62.1 °F 93% 30.12 in 8.0 mi Calm Calm - N/A   Mostly Cloudy
6:02 AM 64.4 °F - 62.6 °F 94% 30.13 in 7.0 mi WNW 3.5 mph - N/A   Mostly Cloudy
6:54 AM 64.9 °F - 62.1 °F 90% 30.14 in 8.0 mi Calm Calm - N/A   Overcast
7:38 AM 66.2 °F - 62.6 °F 88% 30.15 in 5.0 mi Calm Calm - N/A   Overcast
7:54 AM 66.9 °F - 63.0 °F 87% 30.14 in 5.0 mi Calm Calm - N/A   Overcast
8:40 AM 68.0 °F - 62.6 °F 83% 30.16 in 8.0 mi Calm Calm - N/A   Overcast
8:54 AM 69.1 °F - 63.0 °F 81% 30.16 in 6.0 mi Calm Calm - N/A   Overcast
9:01 AM 69.8 °F - 62.6 °F 78% 30.16 in 8.0 mi Calm Calm - N/A   Overcast
9:35 AM 71.6 °F - 62.6 °F 73% 30.16 in 8.0 mi Calm Calm - N/A   Overcast
9:54 AM 71.6 °F - 62.6 °F 73% 30.16 in 10.0 mi Calm Calm - N/A   Overcast
10:24 AM 71.6 °F - 62.6 °F 73% 30.16 in 10.0 mi SW 3.5 mph - N/A   Mostly Cloudy
10:40 AM 71.6 °F - 64.4 °F 78% 30.16 in 10.0 mi South 3.5 mph - N/A   Mostly Cloudy
10:54 AM 73.4 °F - 62.6 °F 69% 30.16 in 10.0 mi Variable 3.5 mph - N/A   Scattered Clouds
11:11 AM 73.4 °F - 62.6 °F 69% 30.16 in 10.0 mi SE 4.6 mph - N/A   Mostly Cloudy
11:54 AM 75.9 °F - 64.0 °F 67% 30.14 in 10.0 mi Calm Calm - N/A   Mostly Cloudy
12:54 PM 78.1 °F - 62.1 °F 58% 30.13 in 10.0 mi Calm Calm - N/A   Scattered Clouds
1:54 PM 80.1 °F 81.2 °F 62.1 °F 54% 30.11 in 10.0 mi Calm Calm - N/A   Clear
2:54 PM 84.9 °F 86.1 °F 64.0 °F 49% 30.10 in 10.0 mi Variable 4.6 mph - N/A   Scattered Clouds
3:54 PM 82.0 °F 83.4 °F 64.0 °F 54% 30.09 in 10.0 mi Variable 4.6 mph - 0.00 in   Mostly Cloudy
4:54 PM 84.0 °F 85.8 °F 64.9 °F 53% 30.08 in 10.0 mi South 8.1 mph - N/A   Clear
5:54 PM 82.9 °F 84.4 °F 64.0 °F 53% 30.07 in 10.0 mi South 6.9 mph - N/A   Clear
6:54 PM 82.0 °F 83.4 °F 64.0 °F 54% 30.05 in 10.0 mi SSE 9.2 mph - N/A   Clear
7:54 PM 80.1 °F 81.7 °F 64.0 °F 58% 30.06 in 10.0 mi SSE 8.1 mph - N/A   Clear
8:54 PM 78.1 °F - 64.0 °F 62% 30.07 in 10.0 mi ENE 5.8 mph - N/A   Clear
9:54 PM 75.9 °F - 64.0 °F 67% 30.09 in 10.0 mi East 3.5 mph - N/A   Partly Cloudy
10:54 PM 73.9 °F - 66.0 °F 76% 30.09 in 9.0 mi Calm Calm - N/A   Mostly Cloudy
11:54 PM 73.0 °F - 66.0 °F 79% 30.09 in 8.0 mi Calm Calm - N/A   Partly Cloudy